START_TIME,STEP,MOV.,M15,t_acc.,M20,t_acc.
1979-07-19 23:00:43.720 ,1,0,0.,24.0,0.,24.0
1979-07-19 23:01:31.720 ,2,0,0.,24.0,0.,24.0
1979-07-19 23:01:55.720 ,3,1,0.,24.0,0.,24.0
1979-07-19 23:02:19.720 ,3,0,0.,24.0,0.,24.0
1979-07-19 23:02:43.720 ,4,1,0.,24.0,0.,24.0
1979-07-19 23:03:07.720 ,4,0,0.,24.0,0.,24.0
1979-07-19 23:03:31.720 ,5,1,0.,24.0,0.,24.0
1979-07-19 23:03:55.720 ,5,0,0.,24.0,0.,24.0
1979-07-19 23:04:19.710 ,6,1,0.,24.0,0.,24.0
1979-07-19 23:04:43.720 ,6,0,0.,24.0,0.,24.0
1979-07-19 23:05:07.710 ,7,1,0.,24.0,0.,24.0
1979-07-19 23:05:31.720 ,7,0,0.,24.0,0.,24.0
1979-07-19 23:05:55.720 ,7,1,0.,24.0,0.,24.0
1979-07-19 23:06:19.710 ,7,0,0.,24.0,0.,24.0
1979-07-19 23:06:43.720 ,6,1,0.,24.0,0.,24.0
1979-07-19 23:07:07.710 ,6,0,0.,24.0,0.,24.0
1979-07-19 23:07:31.720 ,5,1,0.,24.0,0.,24.0
1979-07-19 23:07:55.720 ,5,0,0.,24.0,0.,24.0
1979-07-19 23:08:19.710 ,4,1,0.,24.0,0.,24.0
1979-07-19 23:08:43.720 ,4,0,0.,24.0,0.,24.0
1979-07-19 23:09:07.720 ,3,1,0.,24.0,0.,24.0
1979-07-19 23:09:31.720 ,3,0,0.,24.0,0.,24.0
1979-07-19 23:09:55.720 ,2,1,0.,24.0,0.,24.0
1979-07-19 23:10:19.720 ,2,0,0.,24.0,0.,24.0
1979-07-19 23:10:43.720 ,1,1,0.,24.0,0.,24.0
1979-07-19 23:11:07.720 ,1,0,0.,24.0,0.,24.0
1979-07-19 23:11:31.720 ,0,1,0.,24.0,0.,24.0
1979-07-19 23:11:55.720 ,0,0,0.,24.0,0.,24.0
1979-07-19 23:12:19.720 ,0,1,0.,24.0,0.,24.0
1979-07-19 23:12:43.720 ,0,0,0.,24.0,0.,24.0
1979-07-19 23:13:07.720 ,1,1,0.,24.0,0.,24.0
1979-07-19 23:13:31.720 ,1,0,0.,24.0,0.,24.0
1979-07-19 23:13:55.720 ,2,1,0.,24.0,0.,24.0
1979-07-19 23:14:19.720 ,2,0,0.,24.0,0.,24.0
1979-07-19 23:14:43.720 ,3,1,0.,24.0,0.,24.0
1979-07-19 23:15:07.720 ,3,0,0.,24.0,0.,24.0
1979-07-19 23:15:31.720 ,4,1,0.,24.0,0.,24.0
1979-07-19 23:15:55.720 ,4,0,0.,24.0,0.,24.0
1979-07-19 23:16:19.720 ,5,1,0.,24.0,0.,24.0
1979-07-19 23:16:43.720 ,5,0,0.,24.0,0.,24.0
1979-07-19 23:17:07.710 ,6,1,0.,24.0,0.,24.0
1979-07-19 23:17:31.710 ,6,0,0.,24.0,0.,24.0
1979-07-19 23:17:55.710 ,7,1,0.,24.0,0.,24.0
1979-07-19 23:18:19.710 ,7,0,0.,24.0,0.,24.0
1979-07-19 23:18:43.710 ,7,1,0.,24.0,0.,24.0
1979-07-19 23:19:07.710 ,7,0,1.,24.0,0.,24.0
1979-07-19 23:19:31.710 ,6,1,0.,24.0,0.,24.0
1979-07-19 23:19:55.710 ,6,0,0.,24.0,0.,24.0
1979-07-19 23:20:19.710 ,5,1,0.,24.0,0.,24.0
1979-07-19 23:20:43.710 ,5,0,0.,24.0,0.,24.0
1979-07-19 23:21:07.710 ,4,1,0.,24.0,0.,24.0
1979-07-19 23:21:31.710 ,4,0,0.,24.0,0.,24.0
1979-07-19 23:21:55.710 ,3,1,0.,24.0,0.,24.0
1979-07-19 23:22:19.710 ,3,0,0.,24.0,0.,24.0
1979-07-19 23:22:43.710 ,2,1,0.,24.0,0.,24.0
1979-07-19 23:23:07.710 ,2,0,0.,24.0,0.,24.0
1979-07-19 23:23:31.710 ,1,1,0.,24.0,0.,24.0
1979-07-19 23:23:55.710 ,1,0,0.,24.0,0.,24.0
1979-07-19 23:24:19.710 ,0,1,0.,24.0,0.,24.0
1979-07-19 23:24:43.710 ,0,0,0.,24.0,0.,24.0
1979-07-19 23:25:07.710 ,0,1,0.,24.0,0.,24.0
1979-07-19 23:25:31.710 ,0,0,0.,24.0,0.,24.0
1979-07-19 23:25:55.710 ,1,1,0.,24.0,0.,24.0
1979-07-19 23:26:19.710 ,1,0,0.,24.0,0.,24.0
1979-07-19 23:26:43.710 ,2,1,0.,24.0,0.,24.0
1979-07-19 23:27:07.710 ,2,0,0.,24.0,0.,24.0
1979-07-19 23:27:31.710 ,3,1,0.,24.0,0.,24.0
1979-07-19 23:27:55.710 ,3,0,0.,24.0,0.,24.0
1979-07-19 23:28:19.710 ,4,1,0.,24.0,0.,24.0
1979-07-19 23:28:43.710 ,4,0,0.,24.0,0.,24.0
1979-07-19 23:29:07.710 ,5,1,0.,24.0,0.,24.0
1979-07-19 23:29:31.710 ,5,0,0.,24.0,0.,24.0
1979-07-19 23:29:55.710 ,6,1,0.,24.0,0.,24.0
1979-07-19 23:30:19.710 ,6,0,0.,24.0,0.,24.0
1979-07-19 23:30:43.710 ,7,0,0.,24.0,0.,24.0
1979-07-19 23:31:07.710 ,7,0,0.,24.0,0.,24.0
1979-07-19 23:31:31.710 ,3,1,0.,24.0,0.,24.0
1979-07-19 23:31:55.710 ,0,1,0.,24.0,0.,24.0
1979-07-19 23:32:19.710 ,4,1,0.,24.0,0.,24.0
1979-07-19 23:32:43.710 ,7,1,0.,24.0,0.,24.0
1979-07-19 23:33:07.710 ,3,1,0.,24.0,0.,24.0
1979-07-19 23:33:31.710 ,0,1,0.,24.0,0.,24.0
1979-07-19 23:33:55.710 ,4,1,0.,24.0,0.,24.0
1979-07-19 23:34:19.710 ,7,1,0.,24.0,0.,24.0
1979-07-19 23:34:43.710 ,3,1,0.,24.0,0.,24.0
1979-07-19 23:35:07.710 ,0,1,0.,24.0,0.,24.0
1979-07-19 23:35:31.710 ,4,1,0.,24.0,0.,24.0
1979-07-19 23:35:55.710 ,7,1,0.,24.0,0.,24.0
1979-07-19 23:36:19.710 ,3,1,0.,24.0,0.,24.0
1979-07-19 23:36:43.710 ,0,1,0.,24.0,0.,24.0
1979-07-19 23:37:07.710 ,4,1,0.,24.0,0.,24.0
1979-07-19 23:37:31.710 ,7,1,0.,24.0,0.,24.0
1979-07-19 23:37:55.710 ,3,1,0.,24.0,0.,24.0
1979-07-19 23:38:19.710 ,0,1,0.,24.0,0.,24.0
1979-07-19 23:38:43.710 ,4,1,0.,24.0,0.,24.0
1979-07-19 23:39:07.710 ,7,1,0.,24.0,0.,24.0
1979-07-19 23:39:31.710 ,3,1,0.,24.0,0.,24.0
1979-07-19 23:39:55.710 ,0,1,0.,24.0,0.,24.0
1979-07-19 23:40:19.710 ,4,1,0.,24.0,0.,24.0
1979-07-19 23:40:43.710 ,7,1,0.,24.0,0.,24.0
1979-07-19 23:41:07.710 ,3,1,0.,24.0,0.,24.0
1979-07-19 23:41:31.710 ,0,1,0.,24.0,0.,24.0
1979-07-19 23:41:55.710 ,0,0,0.,24.0,0.,24.0
1979-07-19 23:42:19.710 ,0,0,0.,24.0,0.,24.0
1979-07-19 23:42:43.710 ,5,1,0.,24.0,0.,24.0
1979-07-19 23:43:07.710 ,5,0,0.,24.0,0.,24.0
1979-07-19 23:43:31.710 ,4,1,0.,24.0,0.,24.0
1979-07-19 23:43:55.710 ,4,0,0.,24.0,0.,24.0
1979-07-19 23:44:19.710 ,3,1,0.,24.0,0.,24.0
1979-07-19 23:44:43.710 ,3,0,0.,24.0,0.,24.0
1979-07-19 23:45:07.710 ,2,1,0.,24.0,0.,24.0
1979-07-19 23:45:31.710 ,2,0,0.,24.0,0.,24.0
1979-07-19 23:45:55.710 ,1,1,0.,24.0,0.,24.0
1979-07-19 23:46:19.710 ,1,0,0.,24.0,0.,24.0
1979-07-19 23:46:43.710 ,0,1,0.,24.0,0.,24.0
1979-07-19 23:47:07.710 ,0,0,0.,24.0,0.,24.0
1979-07-19 23:47:31.710 ,0,1,0.,24.0,0.,24.0
1979-07-19 23:47:55.710 ,0,0,0.,24.0,0.,24.0
1979-07-19 23:48:19.710 ,1,1,0.,24.0,0.,24.0
1979-07-19 23:48:43.710 ,1,0,0.,24.0,0.,24.0
1979-07-19 23:49:07.710 ,2,1,0.,24.0,0.,24.0
1979-07-19 23:49:31.710 ,2,0,0.,24.0,0.,24.0
1979-07-19 23:49:55.710 ,3,1,0.,24.0,0.,24.0
1979-07-19 23:50:19.710 ,3,0,0.,24.0,0.,24.0
1979-07-19 23:50:43.710 ,4,1,0.,24.0,0.,24.0
1979-07-19 23:51:07.710 ,4,0,0.,24.0,0.,24.0
1979-07-19 23:51:31.710 ,5,1,0.,24.0,0.,24.0
1979-07-19 23:51:55.710 ,5,0,0.,24.0,0.,24.0
1979-07-19 23:52:19.710 ,6,1,0.,24.0,0.,24.0
1979-07-19 23:52:43.710 ,6,0,0.,24.0,0.,24.0
1979-07-19 23:53:07.710 ,7,1,0.,24.0,0.,24.0
1979-07-19 23:53:31.710 ,7,0,0.,24.0,0.,24.0
1979-07-19 23:53:55.710 ,7,1,0.,24.0,0.,24.0
1979-07-19 23:54:19.710 ,7,0,0.,24.0,0.,24.0
1979-07-19 23:54:43.710 ,6,1,0.,24.0,0.,24.0
1979-07-19 23:55:07.710 ,6,0,0.,24.0,0.,24.0
1979-07-19 23:55:31.710 ,5,1,0.,24.0,0.,24.0
1979-07-19 23:55:55.710 ,5,0,0.,24.0,0.,24.0
1979-07-19 23:56:19.710 ,4,1,0.,24.0,0.,24.0
1979-07-19 23:56:43.710 ,4,0,0.,24.0,0.,24.0
1979-07-19 23:57:07.710 ,3,1,0.,24.0,0.,24.0
1979-07-19 23:57:31.710 ,3,0,0.,24.0,0.,24.0
1979-07-19 23:57:55.710 ,2,1,0.,24.0,0.,24.0
1979-07-19 23:58:19.710 ,2,0,0.,24.0,0.,24.0
1979-07-19 23:58:43.710 ,1,1,0.,24.0,0.,24.0
1979-07-19 23:59:07.710 ,1,0,0.,24.0,0.,24.0
1979-07-19 23:59:31.710 ,0,1,0.,24.0,0.,24.0
1979-07-19 23:59:55.710 ,0,0,0.,24.0,0.,24.0
1979-07-20 00:00:19.710 ,0,1,0.,24.0,0.,24.0
